| time (UTC) | temp F | wind direction | speed MPH | gust MPH | rain 1hr in | rain 24hr in | rain mn in | humidity % | barometer mb |
| 20260902010034 | 83 | 228 | 2.0 | 7.0 | 0.00 | 0.00 | 0.00 | 44 | 1013.3 |
| 20260902004528 | 84 | 172 | 1.0 | 8.0 | 0.00 | 0.00 | 0.00 | 41 | 1013.3 |
| 20260902003025 | 85 | 249 | 3.0 | 9.0 | 0.00 | 0.00 | 0.00 | 40 | 1013.3 |
| 20260902001524 | 86 | 201 | 2.0 | 8.0 | 0.00 | 0.00 | 0.00 | 39 | 1013.2 |
| 20260902000029 | 86 | 177 | 3.0 | 10.0 | 0.00 | 0.00 | 0.00 | 39 | 1013.2 |
| 20260901234522 | 86 | 252 | 5.0 | 9.0 | 0.00 | 0.00 | 0.00 | 37 | 1013.3 |
| 20260901233021 | 87 | 216 | 3.0 | 8.0 | 0.00 | 0.00 | 0.00 | 39 | 1013.4 |
| 20260901231522 | 87 | 290 | 4.0 | 11.0 | 0.00 | 0.00 | 0.00 | 40 | 1013.4 |
| 20260901230035 | 88 | 230 | 2.0 | 11.0 | 0.00 | 0.00 | 0.00 | 39 | 1013.4 |
| 20260901224523 | 89 | 200 | 4.0 | 12.0 | 0.00 | 0.00 | 0.00 | 39 | 1013.4 |
| 20260901223020 | 89 | 227 | 4.0 | 14.0 | 0.00 | 0.00 | 0.00 | 38 | 1013.4 |
| 20260901221525 | 90 | 225 | 4.0 | 11.0 | 0.00 | 0.00 | 0.00 | 36 | 1013.3 |
| 20260901220117 | 90 | 221 | 4.0 | 11.0 | 0.00 | 0.00 | 0.00 | 35 | 1013.2 |
| 20260901214515 | 91 | 274 | 3.0 | 8.0 | 0.00 | 0.00 | 0.00 | 34 | 1013.4 |
| 20260901213013 | 92 | 263 | 5.0 | 9.0 | 0.00 | 0.00 | 0.00 | 33 | 1013.6 |
| 20260901211512 | 92 | 203 | 5.0 | 10.0 | 0.00 | 0.00 | 0.00 | 36 | 1013.6 |
| 20260901210018 | 92 | 215 | 3.0 | 9.0 | 0.00 | 0.00 | 0.00 | 36 | 1013.6 |
| 20260901204510 | 92 | 228 | 2.0 | 9.0 | 0.00 | 0.00 | 0.00 | 34 | 1013.7 |
| 20260901203008 | 92 | 226 | 3.0 | 10.0 | 0.00 | 0.00 | 0.00 | 31 | 1013.8 |
| 20260901201502 | 93 | 139 | 3.0 | 8.0 | 0.00 | 0.00 | 0.00 | 32 | 1013.8 |
| 20260901200100 | 90 | 288 | 2.0 | 7.0 | 0.00 | 0.00 | 0.00 | 32 | 1014.0 |
| 20260901194603 | 90 | 218 | 2.0 | 8.0 | 0.00 | 0.00 | 0.00 | 33 | 1014.2 |
| 20260901193053 | 89 | 178 | 4.0 | 8.0 | 0.00 | 0.00 | 0.00 | 32 | 1014.2 |
| 20260901191559 | 88 | 124 | 1.0 | 7.0 | 0.00 | 0.00 | 0.00 | 34 | 1014.5 |
| 20260901190105 | 88 | 178 | 1.0 | 6.0 | 0.00 | 0.00 | 0.00 | 35 | 1014.5 |
| 20260901184546 | 86 | 127 | 4.0 | 9.0 | 0.00 | 0.00 | 0.00 | 39 | 1014.7 |
| 20260901183042 | 86 | 209 | 3.0 | 8.0 | 0.00 | 0.00 | 0.00 | 42 | 1014.8 |
| 20260901181539 | 85 | 201 | 3.0 | 6.0 | 0.00 | 0.00 | 0.00 | 44 | 1014.9 |
| 20260901180037 | 82 | 163 | 2.0 | 7.0 | 0.00 | 0.00 | 0.00 | 52 | 1015.0 |
| 20260901174536 | 82 | 280 | 2.0 | 5.0 | 0.00 | 0.00 | 0.00 | 55 | 1015.2 |
| 20260901173029 | 78 | 42 | 2.0 | 5.0 | 0.00 | 0.00 | 0.00 | 60 | 1015.2 |
| 20260901171527 | 78 | 122 | 4.0 | 7.0 | 0.00 | 0.00 | 0.00 | 61 | 1015.2 |
| 20260901170020 | 77 | 252 | 2.0 | 5.0 | 0.00 | 0.00 | 0.00 | 66 | 1015.3 |
| 20260901164517 | 76 | 301 | 1.0 | 6.0 | 0.00 | 0.00 | 0.00 | 67 | 1015.2 |
| 20260901163022 | 75 | 203 | 1.0 | 4.0 | 0.00 | 0.00 | 0.00 | 70 | 1015.1 |
| 20260901161511 | 73 | 185 | 2.0 | 6.0 | 0.00 | 0.00 | 0.00 | 74 | 1014.9 |
| 20260901160005 | 73 | 230 | 1.0 | 3.0 | 0.00 | 0.00 | 0.00 | 75 | 1014.8 |
| 20260901154601 | 71 | 144 | 1.0 | 4.0 | 0.00 | 0.00 | 0.00 | 79 | 1014.7 |
| 20260901153055 | 69 | 67 | 0.0 | 0.0 | 0.00 | 0.00 | 0.00 | 83 | 1014.7 |
| 20260901151551 | 67 | 95 | 0.0 | 0.0 | 0.00 | 0.00 | 0.00 | 86 | 1014.6 |
| 20260901150048 | 66 | 144 | 0.0 | 0.0 | 0.00 | 0.00 | 0.00 | 88 | 1014.7 |
| 20260901144543 | 65 | 32 | 0.0 | 0.0 | 0.00 | 0.00 | 0.00 | 89 | 1014.7 |
| 20260901143039 | 64 | 88 | 0.0 | 0.0 | 0.00 | 0.00 | 0.00 | 89 | 1014.5 |
| 20260901141534 | 63 | 44 | 0.0 | 0.0 | 0.00 | 0.00 | 0.00 | 89 | 1014.4 |
| 20260901140031 | 62 | 44 | 0.0 | 0.0 | 0.00 | 0.00 | 0.00 | 88 | 1014.4 |
| 20260901134527 | 62 | 44 | 0.0 | 0.0 | 0.00 | 0.00 | 0.00 | 88 | 1014.4 |
| 20260901133032 | 62 | 44 | 0.0 | 0.0 | 0.00 | 0.00 | 0.00 | 88 | 1014.1 |
| 20260901131524 | 62 | 65 | 0.0 | 2.0 | 0.00 | 0.00 | 0.00 | 88 | 1014.0 |
| 20260901130023 | 62 | 9 | 0.0 | 4.0 | 0.00 | 0.00 | 0.00 | 88 | 1013.9 |
| 20260901124523 | 62 | 7 | 0.0 | 2.0 | 0.00 | 0.00 | 0.00 | 88 | 1013.9 |
| 20260901123024 | 63 | 11 | 0.0 | 2.0 | 0.00 | 0.00 | 0.00 | 87 | 1014.0 |
| 20260901121523 | 63 | 2 | 0.0 | 0.0 | 0.00 | 0.00 | 0.00 | 87 | 1013.9 |
| 20260901120021 | 63 | 26 | 0.0 | 0.0 | 0.00 | 0.00 | 0.00 | 87 | 1013.9 |
| 20260901114518 | 63 | 34 | 0.0 | 0.0 | 0.00 | 0.00 | 0.00 | 87 | 1013.9 |
| 20260901113017 | 63 | 34 | 0.0 | 0.0 | 0.00 | 0.00 | 0.00 | 86 | 1013.8 |
| 20260901111516 | 64 | 34 | 0.0 | 0.0 | 0.00 | 0.00 | 0.00 | 86 | 1013.7 |
| 20260901110014 | 64 | 34 | 0.0 | 0.0 | 0.00 | 0.00 | 0.00 | 86 | 1013.7 |
| 20260901104530 | 64 | 34 | 0.0 | 0.0 | 0.00 | 0.00 | 0.00 | 85 | 1013.7 |
| 20260901103012 | 64 | 34 | 0.0 | 0.0 | 0.00 | 0.00 | 0.00 | 85 | 1013.7 |
| 20260901101518 | 64 | 34 | 0.0 | 0.0 | 0.00 | 0.00 | 0.00 | 85 | 1013.9 |
| 20260901100010 | 65 | 34 | 0.0 | 0.0 | 0.00 | 0.00 | 0.00 | 84 | 1013.9 |
| 20260901094509 | 65 | 34 | 0.0 | 0.0 | 0.00 | 0.00 | 0.00 | 84 | 1014.0 |
| 20260901093008 | 65 | 34 | 0.0 | 0.0 | 0.00 | 0.00 | 0.00 | 84 | 1013.9 |
| 20260901091506 | 65 | 59 | 0.0 | 0.0 | 0.00 | 0.00 | 0.00 | 83 | 1013.6 |
| 20260901090008 | 66 | 59 | 0.0 | 0.0 | 0.00 | 0.00 | 0.00 | 82 | 1013.8 |
| 20260901084505 | 66 | 59 | 0.0 | 0.0 | 0.00 | 0.00 | 0.00 | 81 | 1013.7 |
| 20260901083100 | 66 | 30 | 0.0 | 0.0 | 0.00 | 0.00 | 0.00 | 81 | 1013.7 |
| 20260901081555 | 66 | 81 | 0.0 | 0.0 | 0.00 | 0.00 | 0.00 | 80 | 1013.9 |
| 20260901080053 | 67 | 81 | 0.0 | 0.0 | 0.00 | 0.00 | 0.00 | 80 | 1014.1 |
| 20260901074553 | 67 | 81 | 0.0 | 0.0 | 0.00 | 0.00 | 0.00 | 79 | 1014.0 |
| 20260901073050 | 67 | 81 | 0.0 | 0.0 | 0.00 | 0.00 | 0.00 | 79 | 1014.0 |
| 20260901071601 | 68 | 81 | 0.0 | 0.0 | 0.00 | 0.00 | 0.00 | 78 | 1014.0 |
| 20260901070045 | 69 | 95 | 0.0 | 2.0 | 0.00 | 0.00 | 0.00 | 78 | 1014.0 |
| 20260901064544 | 69 | 215 | 0.0 | 2.0 | 0.00 | 0.00 | 0.00 | 79 | 1013.9 |
| 20260901063043 | 69 | 149 | 0.0 | 4.0 | 0.00 | 0.00 | 0.00 | 77 | 1014.0 |
| 20260901061544 | 69 | 149 | 0.0 | 1.0 | 0.00 | 0.00 | 0.00 | 75 | 1013.8 |
| 20260901060040 | 69 | 149 | 0.0 | 0.0 | 0.00 | 0.00 | 0.00 | 74 | 1013.8 |
| 20260901054540 | 70 | 149 | 0.0 | 2.0 | 0.00 | 0.00 | 0.00 | 73 | 1013.6 |
| 20260901053041 | 70 | 149 | 0.0 | 0.0 | 0.00 | 0.00 | 0.00 | 72 | 1013.5 |
| 20260901051540 | 71 | 149 | 0.0 | 0.0 | 0.00 | 0.00 | 0.00 | 71 | 1013.6 |
| 20260901050038 | 71 | 149 | 0.0 | 0.0 | 0.00 | 0.00 | 0.00 | 71 | 1013.4 |
| 20260901044537 | 72 | 149 | 0.0 | 0.0 | 0.00 | 0.00 | 0.00 | 70 | 1013.5 |
| 20260901043046 | 73 | 197 | 0.0 | 0.0 | 0.00 | 0.00 | 0.00 | 70 | 1013.4 |
| 20260901041536 | 73 | 215 | 0.0 | 0.0 | 0.00 | 0.00 | 0.00 | 69 | 1013.4 |
| 20260901040035 | 74 | 197 | 0.0 | 1.0 | 0.00 | 0.00 | 0.00 | 69 | 1013.6 |
| 20260901034545 | 74 | 222 | 0.0 | 1.0 | 0.00 | 0.00 | 0.00 | 68 | 1013.4 |
| 20260901033048 | 74 | 213 | 0.0 | 1.0 | 0.00 | 0.00 | 0.00 | 67 | 1013.1 |
| 20260901031558 | 75 | 213 | 0.0 | 2.0 | 0.00 | 0.00 | 0.00 | 65 | 1013.0 |
| 20260901030036 | 76 | 236 | 0.0 | 5.0 | 0.00 | 0.00 | 0.00 | 63 | 1012.8 |
| 20260901024531 | 77 | 210 | 1.0 | 5.0 | 0.00 | 0.00 | 0.00 | 60 | 1012.6 |
| 20260901023031 | 78 | 237 | 2.0 | 5.0 | 0.00 | 0.00 | 0.00 | 58 | 1012.4 |
| 20260901021528 | 79 | 172 | 1.0 | 5.0 | 0.00 | 0.00 | 0.00 | 55 | 1012.1 |
| 20260901020033 | 80 | 260 | 2.0 | 7.0 | 0.00 | 0.00 | 0.00 | 53 | 1012.0 |
| 20260901014527 | 81 | 196 | 1.0 | 8.0 | 0.00 | 0.00 | 0.00 | 51 | 1011.9 |
| 20260901013034 | 82 | 237 | 2.0 | 6.0 | 0.00 | 0.00 | 0.00 | 49 | 1011.8 |
| 20260901011524 | 83 | 191 | 1.0 | 8.0 | 0.00 | 0.00 | 0.00 | 48 | 1011.8 |